This demonstration page uses our WeatherBlox Daily Observations layout. Learn more.

Left ArrowRight Arrow

34.16533, -84.80231

Hourly Observations for September 6, 2017

Temp ( °F °C ) Dew Point ( °F °C ) Humidity (%) Winds ( mph kmh ) Pressure ( in mb ) Visibility ( mi km ) Precip ( " mm )
12:05 am 00:05 Cloudy with Nearby Thunderstorms 68 20 68 20 100 100 Calm 29.97 1015 6 10 0.00 0.03
12:21 am 00:21 Cloudy with Nearby Thunderstorms 68 20 68 20 100 100 Calm 29.97 1015 7 11 0.00 0.03
12:46 am 00:46 Cloudy 68 20 68 20 100 100 S 3 6 29.94 1014 8 13 0.00 0.03
12:53 am 00:53 Cloudy 68 20 68 20 100 100 Calm 29.91 1013 9 14 0.00 0.03
1:05 am 01:05 Cloudy 68 20 68 20 100 100 Calm 29.94 1014 8 13 0.00 0.00
1:25 am 01:25 Cloudy 68 20 68 20 100 100 Calm 29.94 1014 9 14 0.00 0.00
1:53 am 01:53 Cloudy with Light Rain 68 20 68 20 100 100 Calm 29.90 1013 4 6 0.00 0.03
2:27 am 02:27 Cloudy 68 20 68 20 100 100 Calm 29.94 1014 10 16 0.00 0.03
2:36 am 02:36 Cloudy 68 20 68 20 100 100 Calm 29.94 1014 10 16 0.00 0.03
2:53 am 02:53 Cloudy 67 19.4 67 19.4 100 100 Calm 29.89 1012 10 16 0.00 0.03
3:00 am 03:00 Cloudy 67 19.4 67 19.4 100 100 Calm 29.94 1014 10 16 0.00 0.00
3:37 am 03:37 Cloudy 65 18.3 63 17.2 93 93 VRB 5 7 29.91 1013 10 16 0.01 0.25
3:53 am 03:53 Cloudy 64 17.8 63 17.2 96 96 Calm 29.88 1012 10 16 0.01 0.25
4:53 am 04:53 Cloudy 63 17.2 62 16.7 97 97 VRB 3 6 29.87 1011 10 16 0.00 0.03
5:02 am 05:02 Cloudy 63 17.2 62 16.7 97 97 Calm 29.91 1013 10 16 0.00 0.00
5:53 am 05:53 Cloudy 63 17.2 61 16.1 93 93 Calm 29.88 1012 10 16 0.00 0.00
6:53 am 06:53 Mostly Cloudy 62 16.7 61 16.1 96 96 Calm 29.89 1012 10 16 0.00 0.00
7:53 am 07:53 Mostly Cloudy 62 16.7 61 16.1 96 96 Calm 29.91 1013 10 16 0.00 0.00
8:49 am 08:49 Mostly Cloudy with Nearby Thunderstorms 63 17 61 16 94 94 Calm 29.94 1014 10 16 0.00 0.00
8:53 am 08:53 Cloudy with Nearby Thunderstorms 62 16.7 61 16.1 96 96 Calm 29.93 1014 10 16 0.00 0.00
9:04 am 09:04 Cloudy with Heavy Rain 62 16.7 61 16.1 96 96 VRB 3 6 29.97 1015 3 4 0.03 0.76
9:14 am 09:14 Cloudy with Rain 61 16.1 61 16.1 100 100 Calm 29.97 1015 5 8 0.05 1.27
9:51 am 09:51 Cloudy with Nearby Thunderstorms 61 16 61 16 100 100 Calm 29.97 1015 8 13 0.09 2.29
9:53 am 09:53 Cloudy with Nearby Thunderstorms 60 15.6 60 15.6 100 100 Calm 29.95 1014 8 13 0.09 2.29
10:01 am 10:01 Cloudy with Thunderstorms 60 15.6 60 15.6 100 100 Calm 29.97 1015 9 14 0.00 0.03
10:19 am 10:19 Mostly Cloudy 61 16.1 61 16.1 100 100 Calm 29.97 1015 10 16 0.00 0.03
10:53 am 10:53 Mostly Cloudy 62 16.7 61 16.1 96 96 N 3 6 29.95 1014 10 16 0.00 0.03
11:53 am 11:53 Mostly Sunny 66 18.9 61 16.1 84 84 VRB 5 7 29.97 1015 10 16 0.00 0.00
12:53 pm 12:53 Sunny 72 22.2 56 13.3 57 57 N 8 13 29.96 1014 10 16 0.00 0.00
1:53 pm 13:53 Partly Cloudy 74 23.3 53 11.7 48 48 N 12 19 29.95 1014 10 16 0.00 0.00
2:53 pm 14:53 Partly Cloudy 74 23.3 53 11.7 48 48 N 6 9 29.94 1014 10 16 0.00 0.00
3:53 pm 15:53 Sunny 74 23.3 53 11.7 48 48 N 12 19 29.93 1014 10 16 0.00 0.00
4:53 pm 16:53 Sunny 74 23.3 49 9.4 41 41 VRB 7 11 29.93 1013 10 16 0.00 0.00
5:53 pm 17:53 Sunny 73 22.8 48 8.9 41 41 NNW 8 13 29.93 1014 10 16 0.00 0.00
6:53 pm 18:53 Sunny 71 21.7 51 10.6 49 49 VRB 5 7 29.95 1014 10 16 0.00 0.00
7:53 pm 19:53 Mostly Sunny 68 20 51 10.6 55 55 Calm 29.97 1015 10 16 0.00 0.00
8:53 pm 20:53 Clear 64 17.8 50 10 60 60 VRB 3 6 30.00 1016 10 16 0.00 0.00
9:53 pm 21:53 Clear 59 15 52 11.1 78 78 Calm 30.03 1017 10 16 0.00 0.00
10:53 pm 22:53 Clear 57 13.9 52 11.1 83 83 Calm 30.04 1017 10 16 0.00 0.00
11:53 pm 23:53 Clear 53 11.7 52 11.1 96 96 Calm 30.06 1018 10 16 0.00 0.00

Powered by AerisWeather